Location: Key Biscayne
(25.6930°N, 80.1630°W)
Time: 07:13:41
(UTC-04:00)

Vanguard 1 Rocket - Visible Passes

Search period start: 22 June 2018 00:00
Search period end: 02 July 2018 00:00
Orbit: 653 x 4224 km, 34.3° (Epoch: 21 June)

Date Brightness Start Highest point End Pass type
(mag) Time Alt. Az. Time Alt. Az. Time Alt. Az.
22 Jun 9.6 00:22:23 10° W 00:29:14 41° WSW 00:29:14 41° WSW visible
22 Jun 8.4 20:47:12 10° WNW 20:52:49 55° NNE 21:03:00 10° E visible
22 Jun 8.9 23:11:21 10° WNW 23:19:31 62° SSW 23:21:33 56° S visible
23 Jun 8.3 22:00:49 10° WNW 22:07:34 86° SSW 22:13:55 32° ESE visible
24 Jun 10.0 00:26:18 10° W 00:31:10 28° WSW 00:31:10 28° WSW visible
24 Jun 8.1 20:50:34 10° WNW 20:56:08 66° NNE 21:06:21 10° ESE visible
24 Jun 9.1 23:14:56 10° W 23:22:49 48° SSW 23:23:37 47° SSW visible
25 Jun 8.4 22:04:14 10° WNW 22:10:49 68° SSW 22:16:07 34° SE visible
26 Jun 10.3 00:30:39 10° W 00:33:22 18° WSW 00:33:22 18° WSW visible
26 Jun 7.9 20:53:54 10° WNW 20:59:25 82° NNE 21:08:39 12° ESE visible
26 Jun 9.4 23:18:45 10° W 23:25:55 36° SSW 23:25:55 36° SSW visible
27 Jun 8.6 22:07:46 10° WNW 22:14:09 51° SSW 22:18:30 33° SSE visible
28 Jun 7.8 20:57:17 10° WNW 21:02:42 77° SSW 21:11:08 14° ESE visible
28 Jun 9.8 23:22:58 10° W 23:28:25 25° SW 23:28:25 25° SW visible
29 Jun 9.0 22:11:31 10° W 22:17:33 36° SSW 22:21:05 29° S visible
30 Jun 8.1 21:00:46 10° WNW 21:06:01 55° SSW 21:13:48 14° SE visible
30 Jun 10.1 23:27:54 10° WSW 23:31:04 16° SW 23:31:04 16° SW visible
01 Jul 9.4 22:15:36 10° W 22:21:03 25° SSW 22:23:49 22° S visible
